User: anonymous   Login
Location: Morehead State University
(38.1872°N, 83.4339°W)
Time: 01:28:56
(UTC-04:00)
Language:

Okean 2 - Orbit

View from above orbital plane
View from above orbital plane
View from above satellite
View from above satellite

Ground track
Ground track

The orbit data is extracted from the following two-line orbital elements,

1 20510U 90018A   16212.82644763  .00000377  00000-0  29178-4 0  9996
2 20510  82.5174 119.9631 0012249 355.3051  65.9720 14.98609071433315
Epoch (UTC): 30 July 2016 19:50:05
Eccentricity: 0.0012249
inclination: 82.5174°
perigee height: 562 km
apogee height: 580 km
right ascension of ascending node: 119.9631°
argument of perigee: 355.3051°
revolutions per day: 14.98609071
mean anomaly at epoch: 65.9720°
orbit number at epoch: 43331

The dashed part of the orbit path shows where the satellite is in the earth's shadow,  

DLR